IDEFIX & ARIANE 42P R/B

Last updated on Sat Aug 15 2026 00:02:08 GMT+0000 (Coordinated Universal Time)

1 27422U 02021B 26226.44002198 .00000086 00000+0 49341-4 0 9996 2 27422 98.5948 163.2948 0013047 83.3653 276.9015 14.31104681266584
UTC large
Height (km)
Speed (km/s)
/
Latitude / Longitude
Inclination (degrees)
Orbital Period (minutes)
Azimuth
Elevation
Range (km)
Doppler Factor

Next 0 passes for location: London (51.5072 / 0.1276)

No passes found over London.
IDEFIX & ARIANE 42P R/B